CW7410 Weather Reports


Display with metric or nautical units.
time (UTC)temp
F
wind
direction
speed
MPH
gust
MPH
rain 1hr
in
rain 24hr
in
rain mn
in
humidity
%
barometer
mb
20200714195851 84 348 2.0 10.0 0.00 0.00 0.00 22 1016.4
20200714195326 83 314 3.0 13.0 0.00 0.00 0.00 24 1016.4
20200714194824 83 317 3.0 13.0 0.00 0.00 0.00 24 1016.4
20200714194403 83 296 6.0 13.0 0.00 0.00 0.00 23 1016.4
20200714193856 83 308 6.0 11.0 0.00 0.00 0.00 25 1016.5
20200714193353 83 302 5.0 13.0 0.00 0.00 0.00 22 1016.5
20200714192832 83 281 8.0 13.0 0.00 0.00 0.00 23 1016.5
20200714192313 83 285 8.0 13.0 0.00 0.00 0.00 23 1016.5
20200714191906 83 280 5.0 16.0 0.00 0.00 0.00 22 1016.7
20200714191342 83 267 6.0 16.0 0.00 0.00 0.00 22 1016.8
20200714190840 84 348 3.0 10.0 0.00 0.00 0.00 24 1016.8
20200714190339 83 285 3.0 10.0 0.00 0.00 0.00 24 1016.7
20200714185833 83 355 5.0 9.0 0.00 0.00 0.00 25 1016.7
20200714185329 83 311 7.0 9.0 0.00 0.00 0.00 22 1016.8
20200714184903 83 302 6.0 11.0 0.00 0.00 0.00 23 1016.8
20200714184400 83 320 4.0 11.0 0.00 0.00 0.00 22 1016.8
20200714183836 83 5 5.0 13.0 0.00 0.00 0.00 22 1016.8
20200714183334 83 360 6.0 13.0 0.00 0.00 0.00 25 1016.8
20200714182831 83 302 7.0 13.0 0.00 0.00 0.00 23 1016.8
20200714182325 83 293 5.0 10.0 0.00 0.00 0.00 23 1016.9
20200714181823 82 287 6.0 12.0 0.00 0.00 0.00 25 1016.9
20200714181400 82 294 8.0 12.0 0.00 0.00 0.00 22 1016.9
20200714180857 81 355 7.0 11.0 0.00 0.00 0.00 23 1017.0
20200714180339 81 327 6.0 11.0 0.00 0.00 0.00 22 1016.9
20200714175837 81 326 6.0 12.0 0.00 0.00 0.00 23 1016.9
20200714175335 81 318 7.0 12.0 0.00 0.00 0.00 23 1016.9
20200714174833 81 300 5.0 11.0 0.00 0.00 0.00 24 1017.0
20200714174331 80 296 4.0 10.0 0.00 0.00 0.00 26 1016.9
20200714173826 80 5 5.0 10.0 0.00 0.00 0.00 26 1016.9
20200714173404 80 346 8.0 10.0 0.00 0.00 0.00 25 1017.0
20200714172845 80 339 7.0 10.0 0.00 0.00 0.00 26 1017.0
20200714172342 80 334 5.0 10.0 0.00 0.00 0.00 26 1017.0
20200714171839 80 22 7.0 12.0 0.00 0.00 0.00 25 1016.9
20200714171336 79 340 6.0 12.0 0.00 0.00 0.00 27 1016.8
20200714170836 79 313 7.0 13.0 0.00 0.00 0.00 27 1016.8
20200714170316 79 329 6.0 13.0 0.00 0.00 0.00 26 1016.8
20200714165905 79 355 8.0 13.0 0.00 0.00 0.00 29 1016.8
20200714165349 78 5 8.0 13.0 0.00 0.00 0.00 27 1016.7
20200714164844 78 17 9.0 14.0 0.00 0.00 0.00 27 1016.7
20200714164342 78 355 8.0 14.0 0.00 0.00 0.00 31 1016.7
20200714163840 77 345 10.0 14.0 0.00 0.00 0.00 29 1016.7
20200714163339 77 313 7.0 12.0 0.00 0.00 0.00 32 1016.6
20200714162834 76 343 8.0 12.0 0.00 0.00 0.00 34 1016.7
20200714162315 75 337 8.0 12.0 0.00 0.00 0.00 34 1016.7
20200714161853 75 315 7.0 11.0 0.00 0.00 0.00 36 1016.7
20200714161332 75 332 7.0 11.0 0.00 0.00 0.00 39 1016.7
20200714160831 74 336 5.0 10.0 0.00 0.00 0.00 40 1016.7
20200714160401 74 319 4.0 8.0 0.00 0.00 0.00 42 1016.7
20200714155859 74 307 5.0 8.0 0.00 0.00 0.00 42 1016.7
20200714155355 74 308 4.0 8.0 0.00 0.00 0.00 42 1016.7
20200714154836 75 315 4.0 6.0 0.00 0.00 0.00 43 1016.7
20200714154333 74 311 4.0 5.0 0.00 0.00 0.00 44 1016.6
20200714153831 73 163 1.0 5.0 0.00 0.00 0.00 46 1016.6
20200714153328 72 163 3.0 5.0 0.00 0.00 0.00 44 1016.6
20200714152826 72 189 2.0 3.0 0.00 0.00 0.00 47 1016.6
20200714152404 71 259 1.0 3.0 0.00 0.00 0.00 45 1016.5
20200714151842 71 309 1.0 4.0 0.00 0.00 0.00 47 1016.4
20200714151323 70 317 2.0 4.0 0.00 0.00 0.00 47 1016.2
20200714150901 69 317 1.0 4.0 0.00 0.00 0.00 48 1016.4
20200714150359 69 317 3.0 4.0 0.00 0.00 0.00 48 1016.3
20200714145857 69 317 2.0 3.0 0.00 0.00 0.00 48 1016.3
20200714145354 68 317 1.0 4.0 0.00 0.00 0.00 48 1016.2
20200714144833 68 317 1.0 4.0 0.00 0.00 0.00 48 1016.2
20200714144313 68 310 3.0 4.0 0.00 0.00 0.00 48 1016.1
20200714143851 68 297 3.0 4.0 0.00 0.00 0.00 49 1016.2
20200714143329 68 288 3.0 4.0 0.00 0.00 0.00 49 1016.1
20200714142824 68 25 1.0 3.0 0.00 0.00 0.00 49 1016.1
20200714142403 68 25 2.0 4.0 0.00 0.00 0.00 49 1016.1
20200714141854 67 25 3.0 5.0 0.00 0.00 0.00 49 1016.1
20200714141349 67 25 3.0 5.0 0.00 0.00 0.00 49 1016.1
20200714140846 67 31 3.0 5.0 0.00 0.00 0.00 49 1016.0
20200714140328 67 9 2.0 4.0 0.00 0.00 0.00 49 1015.9
20200714135906 66 9 2.0 3.0 0.00 0.00 0.00 49 1015.9
20200714135345 66 9 2.0 3.0 0.00 0.00 0.00 50 1015.9
20200714134822 66 5 1.0 6.0 0.00 0.00 0.00 50 1015.9
20200714134400 66 5 3.0 8.0 0.00 0.00 0.00 48 1015.8
20200714133858 66 5 5.0 8.0 0.00 0.00 0.00 47 1015.7
20200714133358 65 5 4.0 10.0 0.00 0.00 0.00 42 1015.6
20200714132838 65 340 5.0 10.0 0.00 0.00 0.00 41 1015.6
20200714132335 64 355 6.0 10.0 0.00 0.00 0.00 44 1015.5
20200714131831 63 339 6.0 9.0 0.00 0.00 0.00 48 1015.6
20200714131327 62 346 4.0 8.0 0.00 0.00 0.00 51 1015.5
20200714130825 60 346 5.0 9.0 0.00 0.00 0.00 53 1015.5
20200714130402 59 341 5.0 9.0 0.00 0.00 0.00 54 1015.5
20200714125858 59 344 4.0 6.0 0.00 0.00 0.00 55 1015.4
20200714125336 58 337 3.0 5.0 0.00 0.00 0.00 55 1015.4
20200714124833 58 360 4.0 6.0 0.00 0.00 0.00 56 1015.3
20200714124331 58 5 4.0 6.0 0.00 0.00 0.00 55 1015.3
20200714123829 58 355 4.0 6.0 0.00 0.00 0.00 54 1015.2
20200714123325 58 344 4.0 6.0 0.00 0.00 0.00 53 1015.1
20200714122823 58 340 5.0 6.0 0.00 0.00 0.00 52 1015.0
20200714122403 58 338 4.0 5.0 0.00 0.00 0.00 52 1015.0
20200714121842 59 344 4.0 5.0 0.00 0.00 0.00 50 1015.0
20200714121340 59 343 4.0 5.0 0.00 0.00 0.00 51 1015.0
20200714120836 59 338 3.0 4.0 0.00 0.00 0.00 51 1014.9
20200714120333 60 335 3.0 5.0 0.00 0.00 0.00 50 1014.9
20200714115831 60 337 4.0 5.0 0.00 0.00 0.00 49 1014.9
20200714115313 60 333 3.0 4.0 0.00 0.00 0.00 48 1014.8
20200714114906 61 328 3.0 4.0 0.00 0.00 0.00 48 1014.8
20200714114347 61 305 2.0 3.0 0.00 0.00 0.00 48 1014.8
20200714113845 62 305 2.0 3.0 0.00 0.00 0.00 48 1014.7
20200714113343 62 305 2.0 3.0 0.00 0.00 0.00 46 1014.7
20200714112851 63 305 2.0 4.0 0.00 0.00 0.00 45 1014.7
20200714112334 63 301 2.0 4.0 0.00 0.00 0.00 45 1014.7
20200714111832 63 300 2.0 5.0 0.00 0.00 0.00 44 1014.5
20200714111314 63 300 3.0 5.0 0.00 0.00 0.00 42 1014.4
20200714110852 63 292 3.0 5.0 0.00 0.00 0.00 42 1014.4
20200714110358 64 313 4.0 5.0 0.00 0.00 0.00 41 1014.4
20200714105849 64 294 4.0 5.0 0.00 0.00 0.00 41 1014.3
20200714105344 64 292 4.0 5.0 0.00 0.00 0.00 40 1014.2
20200714104842 65 282 3.0 4.0 0.00 0.00 0.00 42 1014.2
20200714104340 65 275 3.0 4.0 0.00 0.00 0.00 43 1014.1
20200714103823 66 30 2.0 4.0 0.00 0.00 0.00 43 1014.0
20200714103400 67 30 0.0 0.0 0.00 0.00 0.00 42 1014.0
20200714102858 67 30 0.0 0.0 0.00 0.00 0.00 41 1013.9
20200714102356 68 30 0.0 3.0 0.00 0.00 0.00 39 1013.8
20200714101854 68 30 0.0 4.0 0.00 0.00 0.00 38 1013.8
20200714101348 68 30 2.0 4.0 0.00 0.00 0.00 36 1013.7
20200714100846 69 30 2.0 4.0 0.00 0.00 0.00 35 1013.7
20200714100327 69 30 3.0 8.0 0.00 0.00 0.00 34 1013.7
20200714095825 69 28 3.0 11.0 0.00 0.00 0.00 34 1013.7
20200714095402 69 26 6.0 15.0 0.00 0.00 0.00 33 1013.7
20200714094851 70 360 9.0 15.0 0.00 0.00 0.00 33 1013.5
20200714094351 70 22 10.0 14.0 0.00 0.00 0.00 34 1013.5
20200714093845 70 16 8.0 16.0 0.00 0.00 0.00 35 1013.5
20200714093342 70 355 10.0 17.0 0.00 0.00 0.00 36 1013.5
20200714092823 70 25 13.0 17.0 0.00 0.00 0.00 38 1013.4
20200714092401 69 5 10.0 15.0 0.00 0.00 0.00 40 1013.5
20200714091859 69 5 11.0 14.0 0.00 0.00 0.00 40 1013.5
20200714091356 69 5 9.0 16.0 0.00 0.00 0.00 42 1013.4
20200714090855 69 20 10.0 16.0 0.00 0.00 0.00 43 1013.4
20200714090352 69 21 8.0 14.0 0.00 0.00 0.00 47 1013.2
20200714085849 69 348 7.0 11.0 0.00 0.00 0.00 47 1013.2
20200714085330 69 355 4.0 5.0 0.00 0.00 0.00 48 1013.2
20200714084828 69 55 3.0 9.0 0.00 0.00 0.00 47 1013.1
20200714084325 70 34 3.0 9.0 0.00 0.00 0.00 47 1013.1
20200714083823 70 13 5.0 10.0 0.00 0.00 0.00 47 1013.0
20200714083401 70 10 5.0 11.0 0.00 0.00 0.00 47 1013.0
20200714082859 70 360 7.0 13.0 0.00 0.00 0.00 46 1012.8
20200714082355 70 350 6.0 13.0 0.00 0.00 0.00 46 1012.8
20200714081837 71 5 8.0 12.0 0.00 0.00 0.00 46 1012.9
20200714081330 71 336 8.0 12.0 0.00 0.00 0.00 46 1012.8
20200714080828 71 342 7.0 13.0 0.00 0.00 0.00 46 1012.8
20200714080324 71 291 7.0 13.0 0.00 0.00 0.00 46 1012.8
20200714075822 71 344 9.0 14.0 0.00 0.00 0.00 46 1012.7
20200714075321 71 339 9.0 15.0 0.00 0.00 0.00 46 1012.7
20200714074821 71 350 8.0 15.0 0.00 0.00 0.00 45 1012.6
20200714074319 71 343 10.0 14.0 0.00 0.00 0.00 45 1012.7
20200714073817 71 320 9.0 14.0 0.00 0.00 0.00 45 1012.7
20200714073314 71 348 6.0 14.0 0.00 0.00 0.00 45 1012.6
20200714072831 72 336 9.0 17.0 0.00 0.00 0.00 45 1012.5
20200714072328 72 350 10.0 17.0 0.00 0.00 0.00 44 1012.5
20200714071826 72 360 11.0 19.0 0.00 0.00 0.00 44 1012.4
20200714071327 72 355 10.0 19.0 0.00 0.00 0.00 44 1012.4
20200714070825 72 342 10.0 19.0 0.00 0.00 0.00 44 1012.4
20200714070322 72 330 11.0 19.0 0.00 0.00 0.00 43 1012.4
20200714065819 72 333 10.0 17.0 0.00 0.00 0.00 43 1012.4
20200714065314 73 350 10.0 17.0 0.00 0.00 0.00 43 1012.4
20200714064811 73 346 11.0 18.0 0.00 0.00 0.00 43 1012.4
20200714064313 73 327 11.0 18.0 0.00 0.00 0.00 43 1012.4
20200714063811 73 360 8.0 15.0 0.00 0.00 0.00 43 1012.4
20200714063329 73 317 10.0 14.0 0.00 0.00 0.00 42 1012.4
20200714062827 73 345 7.0 15.0 0.00 0.00 0.00 42 1012.4
20200714062325 74 350 9.0 15.0 0.00 0.00 0.00 42 1012.3
20200714061818 74 344 8.0 14.0 0.00 0.00 0.00 42 1012.2
20200714061316 74 338 7.0 13.0 0.00 0.00 0.00 41 1012.2
20200714060813 74 5 6.0 13.0 0.00 0.00 0.00 42 1012.2
20200714060311 74 331 7.0 12.0 0.00 0.00 0.00 41 1012.1
20200714055829 74 355 8.0 13.0 0.00 0.00 0.00 41 1012.1
20200714055327 74 347 8.0 13.0 0.00 0.00 0.00 41 1012.0
20200714054827 74 17 8.0 13.0 0.00 0.00 0.00 41 1012.0
20200714054413 74 325 8.0 15.0 0.00 0.00 0.00 40 1011.9
20200714053842 75 339 9.0 15.0 0.00 0.00 0.00 40 1011.9
20200714053340 75 348 8.0 13.0 0.00 0.00 0.00 40 1011.8
20200714052837 75 313 8.0 13.0 0.00 0.00 0.00 40 1011.9
20200714052334 75 318 8.0 13.0 0.00 0.00 0.00 40 1011.9
20200714051831 75 346 9.0 14.0 0.00 0.00 0.00 40 1011.9
20200714051328 75 332 8.0 14.0 0.00 0.00 0.00 40 1011.7
20200714050904 75 332 10.0 14.0 0.00 0.00 0.00 40 1011.7
20200714050345 75 340 7.0 16.0 0.00 0.00 0.00 40 1011.6
20200714045839 75 332 9.0 18.0 0.00 0.00 0.00 40 1011.6
20200714045337 75 347 9.0 18.0 0.00 0.00 0.00 40 1011.4
20200714044834 75 335 9.0 15.0 0.00 0.00 0.00 40 1011.3
20200714044327 76 355 10.0 15.0 0.00 0.00 0.00 40 1011.4
20200714043824 76 350 9.0 15.0 0.00 0.00 0.00 40 1011.3
20200714043401 76 341 9.0 15.0 0.00 0.00 0.00 40 1011.3
20200714042831 76 327 8.0 17.0 0.00 0.00 0.00 40 1011.2
20200714042329 76 336 7.0 17.0 0.00 0.00 0.00 39 1011.1
20200714041826 77 355 9.0 17.0 0.00 0.00 0.00 39 1011.0
20200714041321 77 355 7.0 16.0 0.00 0.00 0.00 39 1011.0
20200714040900 77 314 6.0 19.0 0.00 0.00 0.00 38 1011.0
20200714040358 78 341 9.0 19.0 0.00 0.00 0.00 38 1010.8
20200714035856 78 315 10.0 15.0 0.00 0.00 0.00 38 1010.8
20200714035337 78 325 9.0 17.0 0.00 0.00 0.00 38 1010.7
20200714034833 78 349 9.0 17.0 0.00 0.00 0.00 37 1010.7
20200714034332 79 333 8.0 17.0 0.00 0.00 0.00 37 1010.7
20200714033829 79 342 10.0 17.0 0.00 0.00 0.00 36 1010.6
20200714033326 79 322 10.0 17.0 0.00 0.00 0.00 36 1010.5
20200714032822 79 342 11.0 17.0 0.00 0.00 0.00 35 1010.4
20200714032400 80 335 8.0 15.0 0.00 0.00 0.00 32 1010.4
20200714031843 81 309 3.0 4.0 0.00 0.00 0.00 33 1010.2
20200714031339 81 299 2.0 3.0 0.00 0.00 0.00 33 1010.0
20200714030836 82 299 1.0 3.0 0.00 0.00 0.00 33 1010.0
20200714030335 83 299 2.0 3.0 0.00 0.00 0.00 33 1010.0
20200714025832 84 299 3.0 3.0 0.00 0.00 0.00 33 1009.9
20200714025323 85 299 2.0 2.0 0.00 0.00 0.00 33 1009.9
20200714024900 86 299 1.0 3.0 0.00 0.00 0.00 31 1009.9
20200714024342 86 299 1.0 4.0 0.00 0.00 0.00 31 1009.8
20200714023840 87 298 3.0 5.0 0.00 0.00 0.00 27 1009.7
20200714023336 88 300 4.0 7.0 0.00 0.00 0.00 25 1009.8
20200714022833 88 301 4.0 7.0 0.00 0.00 0.00 24 1009.7
20200714022330 89 294 2.0 6.0 0.00 0.00 0.00 25 1009.6
20200714021827 89 271 3.0 6.0 0.00 0.00 0.00 24 1009.6
20200714021405 90 261 3.0 6.0 0.00 0.00 0.00 25 1009.6
20200714020846 90 263 3.0 6.0 0.00 0.00 0.00 25 1009.6
20200714020342 90 275 1.0 4.0 0.00 0.00 0.00 24 1009.5
20200714015839 90 260 2.0 4.0 0.00 0.00 0.00 24 1009.5
20200714015340 90 276 3.0 4.0 0.00 0.00 0.00 24 1009.5
20200714014833 91 277 2.0 4.0 0.00 0.00 0.00 23 1009.5
20200714014331 91 277 2.0 4.0 0.00 0.00 0.00 22 1009.5
20200714013811 91 278 2.0 4.0 0.00 0.00 0.00 22 1009.5
20200714013349 91 303 3.0 4.0 0.00 0.00 0.00 21 1009.6
20200714012845 91 303 2.0 5.0 0.00 0.00 0.00 20 1009.6
20200714012342 91 303 3.0 5.0 0.00 0.00 0.00 20 1009.7
20200714011836 91 329 4.0 5.0 0.00 0.00 0.00 20 1009.6
20200714011333 91 319 3.0 8.0 0.00 0.00 0.00 21 1009.7
20200714010830 90 300 2.0 8.0 0.00 0.00 0.00 21 1009.6
20200714010312 91 315 4.0 8.0 0.00 0.00 0.00 22 1009.6
20200714005849 91 342 3.0 5.0 0.00 0.00 0.00 23 1009.6
20200714005327 92 5 3.0 5.0 0.00 0.00 0.00 22 1009.6
20200714004823 92 292 3.0 6.0 0.00 0.00 0.00 20 1009.7
20200714004400 92 309 4.0 6.0 0.00 0.00 0.00 20 1009.7
20200714003857 92 313 3.0 10.0 0.00 0.00 0.00 22 1009.7
20200714003356 92 298 4.0 10.0 0.00 0.00 0.00 21 1009.7
20200714002856 92 17 2.0 9.0 0.00 0.00 0.00 22 1009.8
20200714002331 92 349 6.0 9.0 0.00 0.00 0.00 23 1009.9
20200714001828 92 310 5.0 9.0 0.00 0.00 0.00 21 1009.9
20200714001406 92 311 3.0 9.0 0.00 0.00 0.00 20 1010.0
20200714000859 92 293 5.0 9.0 0.00 0.00 0.00 21 1010.1
20200714000357 92 306 4.0 11.0 0.00 0.00 0.00 20 1010.1
20200713235855 92 333 7.0 11.0 0.00 0.00 0.00 20 1010.2
20200713235352 92 290 6.0 11.0 0.00 0.00 0.00 20 1010.2
20200713235227 92 283 2.0 10.0 0.00 0.00 0.00 20 1010.3
20200713235153 92 338 4.0 8.0 0.00 0.00 0.00 22 1010.4
20200713233826 92 293 2.0 8.0 0.00 0.00 0.00 21 1010.5
20200713233323 91 341 3.0 10.0 0.00 0.00 0.00 21 1010.5
20200713232900 91 288 6.0 10.0 0.00 0.00 0.00 21 1010.5
20200713232357 91 288 4.0 11.0 0.00 0.00 0.00 21 1010.6
20200713231855 91 315 7.0 11.0 0.00 0.00 0.00 23 1010.7
20200713231338 92 307 6.0 8.0 0.00 0.00 0.00 20 1010.7
20200713230834 92 287 4.0 12.0 0.00 0.00 0.00 21 1010.7
20200713230332 91 5 5.0 12.0 0.00 0.00 0.00 22 1010.7
20200713225828 91 242 4.0 11.0 0.00 0.00 0.00 21 1010.9
20200713225327 91 321 5.0 11.0 0.00 0.00 0.00 20 1011.0
20200713224824 91 246 2.0 10.0 0.00 0.00 0.00 21 1011.0
20200713224402 91 334 4.0 10.0 0.00 0.00 0.00 21 1011.1
20200713223845 91 5 2.0 10.0 0.00 0.00 0.00 20 1011.2
20200713223342 91 340 3.0 10.0 0.00 0.00 0.00 20 1011.2
20200713222838 91 259 4.0 10.0 0.00 0.00 0.00 21 1011.3
20200713222333 91 32 4.0 8.0 0.00 0.00 0.00 22 1011.3
20200713221831 91 300 3.0 6.0 0.00 0.00 0.00 21 1011.5
20200713221347 91 240 2.0 8.0 0.00 0.00 0.00 24 1011.6
20200713220844 91 326 3.0 8.0 0.00 0.00 0.00 23 1011.6
20200713220410 90 294 2.0 12.0 0.00 0.00 0.00 22 1011.8
20200713220219 90 355 1.0 12.0 0.00 0.00 0.00 22 1011.8
20200713214938 90 301 7.0 12.0 0.00 0.00 0.00 25 1012.0
20200713214357 89 270 1.0 10.0 0.00 0.00 0.00 21 1012.0
20200713213855 89 297 6.0 10.0 0.00 0.00 0.00 24 1012.1
20200713213352 89 276 3.0 12.0 0.00 0.00 0.00 23 1012.2
20200713212834 89 269 6.0 13.0 0.00 0.00 0.00 25 1012.4
20200713212332 89 290 6.0 13.0 0.00 0.00 0.00 23 1012.3
20200713211830 89 256 3.0 10.0 0.00 0.00 0.00 26 1012.4
20200713211328 89 274 7.0 14.0 0.00 0.00 0.00 25 1012.4
20200713210824 89 308 9.0 14.0 0.00 0.00 0.00 25 1012.6
20200713210403 89 240 4.0 12.0 0.00 0.00 0.00 26 1012.6
20200713205858 89 248 7.0 11.0 0.00 0.00 0.00 25 1012.6
20200713205340 89 297 6.0 10.0 0.00 0.00 0.00 27 1012.7
20200713204837 89 259 2.0 8.0 0.00 0.00 0.00 25 1012.8
20200713204337 89 254 5.0 8.0 0.00 0.00 0.00 27 1012.8
20200713203831 88 237 5.0 7.0 0.00 0.00 0.00 26 1012.9
20200713203331 88 330 2.0 9.0 0.00 0.00 0.00 26 1012.9
20200713202826 88 283 4.0 9.0 0.00 0.00 0.00 27 1012.9
20200713202404 88 281 4.0 9.0 0.00 0.00 0.00 29 1012.9
20200713201842 88 259 3.0 8.0 0.00 0.00 0.00 28 1013.0
20200713201320 88 263 4.0 7.0 0.00 0.00 0.00 28 1013.0
20200713200819 87 341 3.0 9.0 0.00 0.00 0.00 27 1013.0